User: anonymous   Login
Location: Cypress Hills Dark-Sky Preserve - CHICO
(49.6176°N, 110.2634°W)
Time: 21:36:08
(UTC-06:00)
Language:

SPOT 5 - Orbit

View from above orbital plane
View from above orbital plane
View from above satellite
View from above satellite

Ground track
Ground track

The orbit data is extracted from the following two-line orbital elements,

1 27421U 02021A   16270.80807647  .00000028  00000-0  17630-4 0  9998
2 27421  98.4460 327.2865 0136530  54.6338 306.7510 14.51818512747454
Epoch (UTC): 26 September 2016 19:23:37
Eccentricity: 0.0136530
inclination: 98.4460°
perigee height: 623 km
apogee height: 816 km
right ascension of ascending node: 327.2865°
argument of perigee: 54.6338°
revolutions per day: 14.51818512
mean anomaly at epoch: 306.7510°
orbit number at epoch: 74745

The dashed part of the orbit path shows where the satellite is in the earth's shadow,  

DLR